Location: Allisons_Woods
(35.8920°N, 81.8170°W)
Time: 16:27:13
(UTC-04:00)

Daily predictions for brighter satellites

Satellite Brightness Start Highest point End
(mag) Time Altitude Azimuth Time Altitude Azimuth Time Altitude Azimuth
GPS 2-04 Rocket1 4.2 21:12:28 10° W 21:16:19 30° SSW 21:20:07 10° SE
OAO 2 Rocket 4.3 21:12:14 10° SW 21:16:50 31° SSE 21:21:28 10° E
Cosmos 1908 4.4 21:16:53 10° NNE 21:20:13 26° ENE 21:23:34 10° SE
Cosmos 2266 Rocket 4.4 21:17:47 10° SSE 21:23:42 44° E 21:29:32 10° NNE
Cosmos 1151 Rocket 4.1 21:20:25 10° NNE 21:24:10 28° ENE 21:27:54 10° SE
Cosmos 1674 3.3 21:22:19 10° SSE 21:25:50 36° E 21:29:24 10° NNE
ALOS 2.9 21:23:25 10° S 21:28:01 59° W 21:32:38 10° NNW
Cosmos 371 Rocket 3.5 21:23:22 10° NNW 21:28:10 72° WSW 21:32:56 10° S
Cosmos 405 4.1 21:25:30 10° NNE 21:28:40 28° ENE 21:31:43 11° SE
Cosmos 1553 Rocket 4.1 21:24:08 10° N 21:30:32 81° E 21:36:50 10° S
Cosmos 1680 Rocket 4.4 21:30:05 10° N 21:34:51 34° ENE 21:39:11 12° SE
H-2A R/B 3.9 21:32:12 10° S 21:34:58 20° SE 21:41:41 10° E
Cosmos 1538 Rocket 4.2 21:30:00 10° NNW 21:35:21 77° WSW 21:40:42 10° S
OTV 4 2.4 21:36:32 10° S 21:37:57 13° SSE 21:37:59 13° SSE
Cosmos 1833 4.2 21:33:04 10° SSW 21:38:48 85° ESE 21:44:30 10° NNE
USA 229 DEB 4.2 21:32:15 10° SW 21:39:07 69° WNW 21:46:06 10° NNE
USA 229 4.2 21:32:20 10° SW 21:39:13 69° WNW 21:46:13 10° NNE
Cosmos 923 Rocket 4.3 21:34:26 10° N 21:39:30 50° ENE 21:44:04 12° SE
Tiangong 1 1.1 21:37:01 10° SW 21:40:03 53° SSE 21:43:05 10° ENE
AVUM R/B 4.4 21:41:04 10° SW 21:43:10 33° WNW 21:45:26 10° N
YAOGAN 11 4.4 21:40:14 10° S 21:44:30 65° WSW 21:48:50 10° NNW
Meteor 2-20 4.4 21:39:27 10° S 21:45:36 82° E 21:51:45 10° N
H-2A R/B 4.5 21:44:24 10° SSW 21:47:50 31° W 21:51:17 10° NNW
Cosmos 1939 Rocket 2.8 21:45:33 11° SSE 21:49:17 66° ENE 21:53:09 10° N
H-2A R/B 2.2 21:45:09 10° SSE 21:49:39 72° ENE 21:54:10 10° N
CZ-4 DEB 4.5 21:47:55 10° SSW 21:50:49 31° W 21:53:44 10° NNW
ATLAS CENTAUR R/B 3.8 21:48:55 10° WNW 21:51:50 18° WSW 21:54:37 10° SSW
Cosmos 773 Rocket 4.0 21:46:58 10° NNW 21:52:12 86° ENE 21:57:03 12° SSE
Cosmos 1328 Rocket 4.4 21:49:24 10° NNW 21:53:42 51° W 21:57:59 10° SSW
Cosmos 1437 Rocket 2.7 21:50:19 10° N 21:54:08 82° W 21:57:55 10° S
SPOT 5 3.1 21:53:21 16° SE 21:56:48 49° ENE 22:01:24 10° N
COSMOS 2428 3.7 21:52:37 10° N 21:57:38 31° ENE 22:01:17 16° ESE
NOSS 3-1 (A) 3.7 21:53:24 10° S 21:58:48 42° ESE 22:04:38 10° NE
PSLV R/B 3.7 22:00:36 24° SE 22:02:01 41° ENE 22:04:55 10° N
ARGOS 4.3 21:59:31 16° ESE 22:02:42 28° ENE 22:07:13 10° N
Cosmos 2219 Rocket 3.9 22:01:53 10° NNE 22:05:41 18° NE 22:08:52 12° E
Cosmos 304 Rocket 3.8 22:01:19 10° NNW 22:06:08 72° ENE 22:09:26 20° SSE
Nadezhda 2 Rocket 4.4 22:02:08 10° S 22:08:13 68° E 22:14:17 10° NNE
Cosmos 1437 3.5 22:15:03 10° SSW 22:18:15 54° W 22:21:29 10° N
Cosmos 1328 3.9 22:15:23 11° S 22:19:12 78° W 22:23:10 10° N
ATLAS 2AS CENTAUR R/B 3.8 22:18:20 21° SE 22:21:13 27° ESE 22:27:30 10° NE
Cosmos 1726 3.0 22:19:10 10° NNE 22:22:37 33° E 22:23:25 30° ESE
Envisat 3.3 22:19:28 14° S 22:23:45 64° W 22:28:48 10° NNW
ERS-1 Rocket 4.3 22:20:20 10° SSW 22:24:55 35° W 22:29:32 10° NNW
Cosmos 2219 3.5 22:21:49 10° SSW 22:27:33 71° WNW 22:33:18 10° NNE
Delta 2 Rocket 2.7 22:27:12 10° W 22:30:47 88° S 22:31:52 41° E
BREEZE M DEB (TANK) 4.3 22:33:42 10° WSW 22:35:24 15° SSW 22:35:24 15° SSW
Cosmos 2237 Rocket 3.8 22:32:58 10° N 22:37:21 22° ENE 22:39:42 17° E
Cosmos 2082 4.4 22:38:00 30° SE 22:39:07 33° ESE 22:44:09 10° NE
Cosmos 2322 4.2 22:33:54 10° NNW 22:39:28 55° WSW 22:43:02 22° S
SL-23 DEB 3.7 22:35:04 10° NW 22:39:41 71° NE 22:40:32 48° ESE
Cosmos 1271 Rocket 3.5 22:36:16 10° NNE 22:39:48 34° ENE 22:40:05 33° E
Cosmos 2151 4.4 22:36:17 10° SW 22:40:08 35° W 22:44:01 10° NNW
Cosmos 2112 Rocket 4.2 22:35:17 10° NNW 22:40:30 66° WSW 22:43:24 26° S
Cosmos 1703 3.6 22:41:15 42° ESE 22:41:28 42° E 22:45:11 10° NNE
SL-14 R/B 3.2 22:40:06 35° S 22:41:41 87° E 22:45:41 10° N
Cosmos 1937 Rocket 3.5 22:41:23 29° S 22:43:56 59° ESE 22:49:04 10° NNE
Terra 3.0 22:43:25 25° E 22:44:28 27° ENE 22:48:25 10° NNE
NOSS 3-1 (C) 3.8 22:39:36 10° SW 22:45:20 64° NW 22:51:42 10° NNE
Meteor 1-4 Rocket 3.1 22:41:47 10° N 22:45:21 42° ENE 22:45:29 42° E
Cosmos 2298 Rocket 4.1 22:40:16 10° SSW 22:45:35 78° WNW 22:50:55 10° NNE
Cosmos 2242 Rocket 3.9 22:41:24 10° N 22:45:47 50° E 22:46:44 42° ESE
Iridium 2 4.3 22:47:14 40° E 22:47:14 40° E 22:50:47 10° NNE
Meteor 1-27 4.1 22:42:09 10° N 22:47:51 89° ENE 22:50:34 32° S
MetOp-B 4.4 22:44:55 24° S 22:48:07 64° WSW 22:53:27 10° NNW
Cosmos 2360 Rocket 3.1 22:43:36 10° NW 22:48:55 43° WSW 22:52:21 20° SSW
NOAA 11 4.1 22:47:19 36° SSE 22:49:36 73° ENE 22:55:03 10° N
Sich 1 3.0 22:48:46 33° S 22:50:45 84° W 22:55:10 10° N
USA 245 3.4 22:53:37 42° NW 22:53:37 42° NW 22:55:20 10° NNW
FALCON 9 R/B 4.1 22:20:41 10° W 22:53:47 84° S 23:00:29 15° E
Cosmos 1633 Rocket 3.0 22:52:39 35° SSW 22:54:27 81° W 22:58:50 10° N
Cosmos 990 Rocket 4.1 22:53:44 43° SE 22:54:51 51° ESE 22:59:50 10° NNE
Cosmos 2058 4.1 22:52:03 14° SW 22:55:11 39° W 22:59:03 10° N
DELTA 2 R/B (1) 3.7 22:51:11 10° WNW 22:56:37 59° SSW 22:58:07 43° SSE
DELTA 2 DEB (DPAF) 4.3 22:58:33 51° ESE 22:59:21 60° ENE 23:03:46 10° N
Cosmos 1626 3.4 23:01:03 29° ENE 23:01:03 29° ENE 23:03:32 10° NNE
OAO 2 Rocket 3.3 22:56:03 10° WSW 23:01:21 69° SSE 23:03:20 38° E
SL-08 RB Rocket 3.6 23:06:50 55° S 23:07:46 81° WSW 23:12:16 10° NNW
H-2A R/B 2.3 23:08:02 46° ESE 23:09:17 58° ENE 23:14:37 10° N
CZ-4 R/B 4.3 23:05:48 10° N 23:10:39 60° WNW 23:13:19 25° SW
Cosmos 2227 Rocket 2.1 23:11:30 44° S 23:13:15 71° ESE 23:18:54 10° NNE
YAOGAN 6 4.2 23:12:46 25° WSW 23:13:34 27° W 23:16:42 10° NW
Tiangong 1 2.8 23:13:56 10° W 23:16:45 31° NNW 23:17:12 29° N
Cosmos 1300 4.2 23:13:34 10° NNW 23:16:58 30° W 23:17:53 27° WSW
SPOT 1/Viking Rocket 4.4 23:19:48 29° SW 23:21:46 41° W 23:26:38 10° NNW
Cosmos 1241 Rocket 4.4 23:22:14 22° SSW 23:26:23 84° WNW 23:32:40 10° NNE
IGS 5A 3.6 23:29:10 68° NE 23:29:10 68° NE 23:33:01 10° N
Cosmos 2333 Rocket 2.2 23:24:35 10° NNW 23:30:20 70° ENE 23:31:18 59° ESE
SeaSat 1 4.4 23:29:32 16° ENE 23:30:46 17° NE 23:33:55 10° NNE
SL-16 R/B 3.5 23:26:07 10° N 23:30:52 27° ENE 23:32:01 25° ENE
Cosmos 1125 Rocket 3.9 23:33:30 46° E 23:33:30 46° E 23:38:04 10° NNE
Cosmos 1455 2.9 23:35:52 10° N 23:38:49 52° NNW 23:38:49 52° NNW
Cosmos 2297 Rocket 2.0 23:39:28 66° S 23:40:18 83° ESE 23:45:58 10° NNE
Nadezhda 1 Rocket 3.9 23:34:44 10° N 23:40:50 77° W 23:42:17 54° SSW
COSMOS 2428 3.9 23:36:50 10° NW 23:41:48 32° WSW 23:43:18 28° SW
ARGOS 4.4 23:41:02 27° SW 23:42:46 33° W 23:47:37 10° NNW
Cosmos 1470 Rocket 4.4 23:45:42 40° W 23:46:08 42° W 23:50:15 10° N
Cosmos 1933 Rocket 4.4 23:46:48 41° W 23:47:20 43° W 23:51:36 10° N
Cosmos 2219 Rocket 2.4 23:44:31 10° NNW 23:50:01 58° WSW 23:50:35 55° SW
